Location: Charlotte
(35.2269°N, 80.8433°W)
Time: 14:22:57
(UTC-04:00)

ISS - Visible Passes

Search period start: 20 July 2018 00:00
Search period end: 30 July 2018 00:00
Orbit: 402 x 408 km, 51.6° (Epoch: 20 July)

Date Brightness Start Highest point End Pass type
(mag) Time Alt. Az. Time Alt. Az. Time Alt. Az.
20 Jul -0.6 04:05:59 10° NNW 04:08:08 16° NNE 04:10:16 10° ENE visible
20 Jul -3.8 05:41:37 10° NW 05:44:52 57° SW 05:48:05 10° SE visible
20 Jul -2.0 22:19:29 10° WSW 22:22:28 32° NW 22:25:29 10° NNE visible
21 Jul -0.2 03:14:57 10° N 03:15:45 11° NNE 03:16:31 10° NE visible
21 Jul -3.4 04:49:30 10° NW 04:52:46 64° NE 04:56:01 10° ESE visible
21 Jul -3.4 21:27:03 10° SW 21:30:17 66° NW 21:33:32 10° NE visible
21 Jul -0.2 23:06:29 10° NW 23:07:18 11° NNW 23:08:08 10° N visible
22 Jul -2.0 03:57:34 10° NNW 04:00:35 32° NE 04:03:34 10° ESE visible
22 Jul -2.5 05:34:25 10° W 05:36:54 20° SW 05:39:22 10° S visible
22 Jul -0.6 22:12:44 10° WNW 22:14:53 16° NNW 22:17:03 10° NNE visible
23 Jul -1.4 21:19:44 10° W 21:22:33 26° NW 21:25:24 10° NNE visible
25 Jul -0.7 21:13:10 10° WNW 21:14:57 14° NNW 21:16:45 10° N visible
